Location: Navalespino
(40.5894°N, 4.2660°W)
Time: 18:51:26
(UTC+00:00)

Genesis I - Pass Details

Date: 18 April 2024
Orbit: 439 x 467 km, 64.5° (Epoch: 18 May)

Event Time Altitude Azimuth Distance (km) Brightness Sun altitude
Rises 20:49:34 0° 331° (NNW) 2,525 7.8 -19.6°
Reaches altitude 10° 20:51:44 10° 337° (NNW) 1,648 6.6 -19.9°
Enters shadow 20:55:20 53° 53° (NE) 595 3.3 -20.5°
